Вернуться в каталог

COSMOS 839 DEB

АктивенUNKNOWN
NORAD 10463·DEBRIS·🇷🇺 Russia

Запущен Jul 8, 1976 с Plesetsk Cosmodrome

Loading…

Ближайшие Пролёты (ближайшие 24 часа)

TLE

СвежийSource: Space-Track

Эпоха: Sep 14, 2026, 14:26 UTC

1 10463U 76067AG  26257.60144653 -.00000045  00000-0  37839-4 0  9995
2 10463  65.8227 115.9092 0695512 347.6338  38.2671 12.32562676257499

Отслеживайте COSMOS 839 DEB в реальном времени с AllMySat

Download on the App Store